This is the latest recevied weather packets stored in our database for station/object W8LMG. If no packets are shown the sender has not sent any weather packets the latest 10 day(s).
| Time | Temp. | Humidity | Pressure | Rain* | Wind** | Luminosity | Snow |
|---|---|---|---|---|---|---|---|
| 1777155236 | 17.22° C | 80% | 1010.8 hPa | 0 mm | - | 64 W/m² | - |
| 1777154933 | 16.67° C | 82% | 1010.8 hPa | 0 mm | - | 75 W/m² | - |
| 1777154629 | 16.67° C | 82% | 1010.8 hPa | 0 mm | - | 65 W/m² | - |
| 1777154326 | 16.67° C | 82% | 1010.6 hPa | 0 mm | - | 40 W/m² | - |
| 1777154021 | 17.22° C | 81% | 1010.6 hPa | 0 mm | - | 31 W/m² | - |
| 1777153717 | 17.78° C | 80% | 1010.7 hPa | 0 mm | - | 17 W/m² | - |
| 1777153414 | 18.33° C | 80% | 1010.6 hPa | 0 mm | - | 24 W/m² | - |
| 1777153110 | 17.78° C | 82% | 1010.3 hPa | 0 mm | - | 59 W/m² | - |
| 1777152807 | 17.78° C | 82% | 1010.4 hPa | 0 mm | - | 91 W/m² | - |
| 1777152503 | 17.78° C | 81% | 1010.4 hPa | 0 mm | - | 94 W/m² | - |
| 1777152200 | 17.78° C | 83% | 1010.3 hPa | 0 mm | - | 81 W/m² | - |
| 1777151895 | 17.78° C | 83% | 1010.4 hPa | 0 mm | - | 69 W/m² | - |
| 1777151591 | 17.78° C | 84% | 1010.4 hPa | 0 mm | - | 75 W/m² | - |
| 1777151288 | 17.78° C | 84% | 1010.3 hPa | 0 mm | - | 67 W/m² | - |
| 1777150983 | 17.78° C | 82% | 1010.3 hPa | 0 mm | - | 95 W/m² | - |
| 1777150677 | 17.78° C | 82% | 1010.3 hPa | 0 mm | - | 124 W/m² | - |
| 1777150373 | 17.78° C | 83% | 1010.3 hPa | 0 mm | - | 129 W/m² | - |
| 1777150070 | 17.78° C | 82% | 1010.1 hPa | 0 mm | - | 131 W/m² | - |
| 1777149766 | 17.78° C | 83% | 1010.2 hPa | 0 mm | - | 123 W/m² | - |
| 1777149463 | 17.78° C | 83% | 1010.3 hPa | 0 mm | - | 128 W/m² | - |
| 1777149159 | 17.78° C | 84% | 1010.2 hPa | 0 mm | - | 125 W/m² | - |
| 1777148858 | 17.78° C | 85% | 1010 hPa | 0 mm | - | 121 W/m² | - |
| 1777148556 | 17.78° C | 85% | 1010.2 hPa | 0 mm | - | 126 W/m² | - |
| 1777148251 | 17.78° C | 86% | 1010.2 hPa | 0 mm | - | 127 W/m² | - |
| 1777147949 | 17.22° C | 86% | 1010.1 hPa | 0 mm | - | 141 W/m² | - |
* Rain latest hour (hover to see other rain measurements)
** Current wind speed in m/s (hover to see current wind gust speed)